| time (UTC) | temp C | wind direction | speed KPH | gust KPH | rain 1hr cm | rain 24hr cm | rain mn cm | humidity % | barometer mb |
| 20260905001502 | 15 | 304 | 22.5 | 30.6 | 0.00 | 1.30 | 0.00 | 84 | 1000.7 |
| 20260905000001 | 15 | 289 | 19.3 | 35.4 | 0.00 | 1.30 | 0.00 | 83 | 1000.6 |
| 20260904234600 | 15 | 276 | 19.3 | 32.2 | 0.00 | 1.30 | 0.00 | 84 | 1000.7 |
| 20260904233058 | 15 | 297 | 25.7 | 46.7 | 0.00 | 1.30 | 0.00 | 82 | 1000.4 |
| 20260904231557 | 15 | 324 | 29.0 | 43.5 | 0.00 | 1.30 | 0.00 | 82 | 1000.4 |
| 20260904230107 | 15 | 266 | 30.6 | 48.3 | 0.00 | 1.30 | 0.00 | 81 | 1000.5 |
| 20260904224603 | 15 | 279 | 35.4 | 43.5 | 0.00 | 1.30 | 0.00 | 80 | 1000.5 |
| 20260904223105 | 15 | 262 | 27.4 | 57.9 | 0.00 | 1.30 | 0.00 | 81 | 1000.3 |
| 20260904221549 | 15 | 279 | 35.4 | 45.1 | 0.00 | 1.30 | 0.00 | 82 | 1000.0 |
| 20260904220045 | 15 | 294 | 24.1 | 45.1 | 0.00 | 1.30 | 0.00 | 83 | 1000.1 |
| 20260904214548 | 15 | 276 | 27.4 | 45.1 | 0.00 | 1.30 | 1.30 | 83 | 999.8 |
| 20260904213041 | 15 | 287 | 24.1 | 43.5 | 0.00 | 1.30 | 1.30 | 84 | 999.8 |
| 20260904211538 | 14 | 290 | 22.5 | 35.4 | 0.00 | 1.30 | 1.30 | 84 | 999.8 |
| 20260904210036 | 14 | 266 | 20.9 | 41.8 | 0.03 | 1.30 | 1.30 | 84 | 999.7 |
| 20260904204535 | 14 | 278 | 20.9 | 38.6 | 0.03 | 1.30 | 1.30 | 86 | 999.4 |
| 20260904203032 | 14 | 290 | 20.9 | 35.4 | 0.03 | 1.30 | 1.30 | 91 | 999.4 |
| 20260904201540 | 13 | 254 | 8.0 | 22.5 | 0.05 | 1.30 | 1.30 | 92 | 999.4 |
| 20260904200041 | 13 | 211 | 9.7 | 20.9 | 0.08 | 1.27 | 1.27 | 92 | 999.4 |
| 20260904194528 | 13 | 311 | 12.9 | 24.1 | 0.13 | 1.27 | 1.27 | 92 | 999.2 |
| 20260904193036 | 13 | 237 | 12.9 | 25.7 | 0.23 | 1.27 | 1.27 | 91 | 999.0 |
| 20260904191524 | 13 | 221 | 12.9 | 24.1 | 0.18 | 1.24 | 1.24 | 91 | 998.8 |
| 20260904190022 | 14 | 264 | 12.9 | 25.7 | 0.15 | 1.19 | 1.19 | 91 | 998.8 |
| 20260904184519 | 14 | 265 | 11.3 | 17.7 | 0.08 | 1.14 | 1.14 | 91 | 998.7 |
| 20260904183019 | 14 | 226 | 9.7 | 19.3 | 0.00 | 1.07 | 1.07 | 90 | 998.6 |
| 20260904181517 | 15 | 229 | 8.0 | 19.3 | 0.00 | 1.07 | 1.07 | 90 | 998.4 |
| 20260904180016 | 15 | 242 | 8.0 | 16.1 | 0.00 | 1.07 | 1.07 | 90 | 998.7 |
| 20260904174516 | 15 | 231 | 6.4 | 12.9 | 0.00 | 1.35 | 1.07 | 90 | 998.6 |
| 20260904173016 | 15 | 222 | 6.4 | 17.7 | 0.00 | 1.35 | 1.07 | 90 | 998.8 |
| 20260904171533 | 15 | 233 | 8.0 | 19.3 | 0.00 | 1.35 | 1.07 | 90 | 998.7 |
| 20260904170014 | 15 | 236 | 6.4 | 16.1 | 0.00 | 1.35 | 1.07 | 89 | 998.4 |
| 20260904164513 | 15 | 234 | 6.4 | 17.7 | 0.00 | 1.37 | 1.07 | 89 | 998.4 |
| 20260904163032 | 15 | 243 | 8.0 | 17.7 | 0.00 | 1.37 | 1.07 | 89 | 998.7 |
| 20260904161511 | 15 | 250 | 4.8 | 19.3 | 0.00 | 1.37 | 1.07 | 90 | 998.7 |
| 20260904160011 | 16 | 233 | 4.8 | 16.1 | 0.00 | 1.37 | 1.07 | 90 | 998.6 |
| 20260904154515 | 16 | 283 | 4.8 | 17.7 | 0.00 | 1.37 | 1.07 | 89 | 998.7 |
| 20260904153010 | 16 | 226 | 8.0 | 14.5 | 0.00 | 1.37 | 1.07 | 89 | 998.7 |
| 20260904151517 | 16 | 266 | 4.8 | 22.5 | 0.00 | 1.37 | 1.07 | 90 | 998.7 |
| 20260904150007 | 15 | 270 | 4.8 | 12.9 | 0.03 | 1.37 | 1.07 | 90 | 998.7 |
| 20260904144506 | 15 | 288 | 4.8 | 17.7 | 0.08 | 1.42 | 1.07 | 90 | 998.8 |
| 20260904143006 | 15 | 257 | 3.2 | 14.5 | 0.15 | 1.42 | 1.07 | 90 | 998.6 |
| 20260904141502 | 14 | 222 | 4.8 | 12.9 | 0.18 | 1.42 | 1.07 | 91 | 999.0 |
| 20260904140001 | 14 | 235 | 4.8 | 14.5 | 0.20 | 1.40 | 1.04 | 91 | 999.1 |
| 20260904134600 | 14 | 293 | 6.4 | 17.7 | 0.23 | 1.35 | 0.99 | 91 | 999.2 |
| 20260904133110 | 15 | 307 | 8.0 | 19.3 | 0.18 | 1.27 | 0.89 | 91 | 999.3 |
| 20260904131558 | 15 | 247 | 3.2 | 14.5 | 0.23 | 1.24 | 0.89 | 91 | 999.2 |
| 20260904130106 | 15 | 252 | 3.2 | 17.7 | 0.30 | 1.19 | 0.84 | 91 | 999.1 |
| 20260904124554 | 15 | 240 | 6.4 | 17.7 | 0.33 | 1.12 | 0.76 | 91 | 999.5 |
| 20260904123058 | 15 | 257 | 11.3 | 20.9 | 0.33 | 1.09 | 0.71 | 91 | 999.6 |
| 20260904121551 | 15 | 229 | 4.8 | 14.5 | 0.30 | 0.99 | 0.64 | 91 | 999.8 |
| 20260904120058 | 15 | 220 | 3.2 | 16.1 | 0.23 | 0.89 | 0.53 | 91 | 1000.0 |
| 20260904114550 | 15 | 231 | 8.0 | 20.9 | 0.15 | 0.79 | 0.43 | 91 | 1000.1 |
| 20260904113046 | 15 | 227 | 9.7 | 19.3 | 0.15 | 0.76 | 0.38 | 91 | 1000.1 |
| 20260904111546 | 15 | 205 | 9.7 | 19.3 | 0.13 | 0.71 | 0.33 | 91 | 1000.1 |
| 20260904110045 | 15 | 207 | 6.4 | 19.3 | 0.13 | 0.69 | 0.30 | 91 | 1000.2 |
| 20260904104544 | 15 | 209 | 8.0 | 16.1 | 0.15 | 0.71 | 0.28 | 91 | 1000.4 |
| 20260904103043 | 15 | 216 | 8.0 | 16.1 | 0.15 | 0.69 | 0.23 | 90 | 1000.7 |
| 20260904101541 | 15 | 210 | 6.4 | 11.3 | 0.15 | 0.66 | 0.23 | 90 | 1000.9 |
| 20260904100036 | 15 | 218 | 9.7 | 19.3 | 0.15 | 0.61 | 0.18 | 89 | 1001.4 |
| 20260904094535 | 15 | 201 | 8.0 | 16.1 | 0.08 | 0.71 | 0.13 | 89 | 1001.4 |
| 20260904093033 | 15 | 181 | 6.4 | 12.9 | 0.05 | 0.71 | 0.08 | 88 | 1001.8 |
| 20260904091531 | 15 | 178 | 9.7 | 14.5 | 0.03 | 0.69 | 0.05 | 87 | 1002.1 |
| 20260904090028 | 15 | 235 | 4.8 | 16.1 | 0.00 | 0.66 | 0.05 | 86 | 1002.4 |
| 20260904084527 | 15 | 207 | 8.0 | 20.9 | 0.00 | 0.97 | 0.05 | 86 | 1002.5 |
| 20260904083026 | 15 | 191 | 8.0 | 14.5 | 0.00 | 0.97 | 0.05 | 87 | 1002.7 |
| 20260904081524 | 15 | 228 | 6.4 | 16.1 | 0.00 | 0.97 | 0.05 | 87 | 1002.8 |
| 20260904080025 | 15 | 212 | 6.4 | 16.1 | 0.00 | 0.97 | 0.05 | 88 | 1002.9 |
| 20260904074524 | 15 | 220 | 6.4 | 14.5 | 0.00 | 0.99 | 0.05 | 87 | 1003.0 |
| 20260904073020 | 15 | 178 | 4.8 | 11.3 | 0.00 | 0.99 | 0.05 | 87 | 1003.1 |
| 20260904071518 | 15 | 229 | 3.2 | 12.9 | 0.00 | 0.99 | 0.05 | 86 | 1003.3 |
| 20260904070018 | 15 | 233 | 4.8 | 11.3 | 0.00 | 0.99 | 0.05 | 86 | 1003.4 |
| 20260904064517 | 15 | 231 | 4.8 | 17.7 | 0.00 | 1.04 | 0.05 | 86 | 1003.7 |
| 20260904063015 | 15 | 243 | 6.4 | 12.9 | 0.00 | 1.04 | 0.05 | 85 | 1003.9 |
| 20260904061515 | 15 | 210 | 3.2 | 11.3 | 0.00 | 1.04 | 0.05 | 85 | 1004.0 |
| 20260904060013 | 15 | 231 | 4.8 | 8.0 | 0.00 | 1.04 | 0.05 | 84 | 1004.1 |
| 20260904054527 | 14 | 257 | 4.8 | 9.7 | 0.00 | 1.35 | 0.05 | 84 | 1004.3 |
| 20260904053009 | 15 | 233 | 1.6 | 8.0 | 0.00 | 1.35 | 0.05 | 84 | 1004.6 |
| 20260904051510 | 15 | 232 | 3.2 | 8.0 | 0.00 | 1.35 | 0.05 | 84 | 1004.6 |
| 20260904050007 | 15 | 236 | 3.2 | 12.9 | 0.00 | 1.35 | 0.05 | 83 | 1004.6 |
| 20260904044511 | 15 | 235 | 6.4 | 14.5 | 0.00 | 1.45 | 0.05 | 83 | 1004.7 |
| 20260904043005 | 15 | 233 | 8.0 | 20.9 | 0.00 | 1.45 | 0.05 | 83 | 1004.6 |
| 20260904041505 | 15 | 263 | 6.4 | 17.7 | 0.00 | 1.45 | 0.05 | 84 | 1004.5 |
| 20260904040003 | 15 | 284 | 6.4 | 14.5 | 0.00 | 1.45 | 0.05 | 82 | 1004.8 |
| 20260904034502 | 15 | 231 | 6.4 | 20.9 | 0.00 | 1.45 | 0.05 | 80 | 1004.9 |
| 20260904033100 | 15 | 258 | 9.7 | 24.1 | 0.00 | 1.45 | 0.05 | 79 | 1005.0 |
| 20260904031602 | 15 | 268 | 11.3 | 29.0 | 0.00 | 1.45 | 0.05 | 79 | 1005.3 |
| 20260904024558 | 15 | 266 | 17.7 | 30.6 | 0.00 | 1.45 | 0.05 | 82 | 1005.1 |
| 20260904023053 | 15 | 250 | 16.1 | 25.7 | 0.00 | 1.45 | 0.05 | 85 | 1005.3 |
| 20260904021557 | 15 | 323 | 12.9 | 30.6 | 0.00 | 1.45 | 0.05 | 85 | 1005.4 |
| 20260904020046 | 15 | 251 | 8.0 | 22.5 | 0.00 | 1.45 | 0.05 | 86 | 1005.7 |
| 20260904014546 | 15 | 244 | 14.5 | 22.5 | 0.00 | 1.45 | 0.05 | 88 | 1005.7 |
| 20260904013052 | 15 | 262 | 6.4 | 19.3 | 0.05 | 1.45 | 0.05 | 88 | 1005.5 |
| 20260904011556 | 15 | 215 | 9.7 | 22.5 | 0.05 | 1.45 | 0.05 | 88 | 1005.8 |
| 20260904010038 | 15 | 276 | 14.5 | 27.4 | 0.05 | 1.45 | 0.05 | 88 | 1005.9 |
| 20260904004537 | 15 | 254 | 9.7 | 20.9 | 0.05 | 1.45 | 0.05 | 87 | 1006.0 |
| 20260904003036 | 16 | 304 | 14.5 | 30.6 | 0.00 | 1.42 | 0.00 | 85 | 1006.0 |